Flag for Moldova Weather past 2 weeks in Chisinau, Moldova

Now
66 °F

Sprinkles. Passing clouds.


Feels Like: 66 °F
Forecast: 55 / 70 °F
Wind: 6 mph from North

Location: Chisinau International Airport

Current Time: Aug 27, 2014 at 10:38:18 PM

Latest Report: Aug 27, 2014 at 10:00 PM


Visibility: 4 mi

Pressure: 29.74 "Hg

Humidity: 88%

Dew point: 63 °F

Location of ChisinauLocation

Historic Weather in Chisinau — Graph

°F

Chisinau temperature yesterday

Maximum temperature yesterday: 79 °F (at 4:30 PM)
Minimum temperature yesterday: 55 °F (at 2:00 AM)
Average temperature yesterday: 67 °F

Past Weeks' High & Low Weather Summary

 TemperatureHumidityPressure
High97 °F (Aug 14, 2:00 PM)94% (Aug 22, 2:00 AM)30.12 "Hg (Aug 22, 2:00 AM)
Low50 °F (Aug 19, 5:00 AM)14% (Aug 14, 2:30 PM)29.71 "Hg (Aug 27, 2:30 PM)
Average72 °F57%29.93 "Hg
* Reported Aug 12 9:00 PM — Aug 27 9:00 PM, Chisinau, Weather by CustomWeather, © 2014

Note: Actual official high and low records may vary slightly from our data, if they occured in-between our weather recording intervals... More about our weather records

Advertising

Chisinau weather history for previous 24 hours

 ConditionsComfort  
Time TempWeatherWind HumidityBarometerVisibility
9:00 PM
Aug 27
66 °FSprinkles. Passing clouds.6 mph88%29.74 "Hg5 mi
8:30 PM68 °FSprinkles. Partly sunny.5 mph83%29.74 "HgN/A
8:00 PM70 °FRain showers. Partly sunny.2 mph73%29.71 "Hg2 mi
7:30 PM70 °FLight rain. Partly sunny.5 mph69%29.71 "HgN/A
7:00 PM70 °FPartly sunny.6 mph69%29.71 "HgN/A
6:00 PM72 °FPartly sunny.12 mph69%29.71 "HgN/A
5:30 PM73 °FPartly sunny.17 mph61%29.71 "HgN/A
5:00 PM81 °FPartly sunny.15 mph42%29.71 "HgN/A
4:30 PM82 °FPartly sunny.10 mph35%29.71 "HgN/A
4:00 PM84 °FPartly sunny.10 mph35%29.71 "HgN/A
3:30 PM84 °FPartly sunny.10 mph35%29.71 "HgN/A
3:00 PM86 °FPartly sunny.8 mph33%29.71 "HgN/A
2:30 PM84 °FPartly sunny.6 mph33%29.71 "HgN/A
2:00 PM84 °FScattered clouds.7 mph33%29.74 "HgN/A
1:30 PM84 °FScattered clouds.8 mph33%29.74 "HgN/A
1:00 PM84 °FPassing clouds.6 mph33%29.74 "HgN/A
12:30 PM82 °FPassing clouds.5 mph37%29.77 "HgN/A
12:00 PM81 °FPassing clouds.2 mph42%29.77 "HgN/A
11:30 AM81 °FPassing clouds.6 mph42%29.77 "HgN/A
11:00 AM79 °FSunny.3 mph48%29.77 "Hg10 mi
10:30 AM77 °FSunny.5 mph54%29.80 "Hg10 mi
10:00 AM75 °FPassing clouds.6 mph54%29.80 "HgN/A
9:30 AM73 °FSunny.2 mph61%29.80 "Hg10 mi
9:00 AM72 °FSunny.2 mph65%29.80 "Hg10 mi
8:30 AM68 °FSunny.2 mph73%29.80 "Hg10 mi
8:00 AM66 °FSunny.2 mph78%29.80 "Hg10 mi
7:30 AM64 °FPassing clouds.7 mph83%29.80 "HgN/A
7:00 AM64 °FPassing clouds.3 mph78%29.80 "HgN/A
6:30 AM64 °FClear.No wind78%29.80 "Hg10 mi
6:00 AM63 °FClear.5 mph83%29.80 "Hg10 mi
4:30 AM66 °FClear.7 mph73%29.80 "Hg10 mi
4:00 AM66 °FPassing clouds.5 mph73%29.80 "HgN/A
3:30 AM68 °FPassing clouds.7 mph69%29.80 "HgN/A
2:30 AM66 °FPassing clouds.6 mph73%29.83 "HgN/A
2:00 AM66 °FPassing clouds.7 mph68%29.83 "HgN/A
1:30 AM66 °FPassing clouds.5 mph68%29.83 "HgN/A
1:00 AM66 °FPassing clouds.6 mph68%29.83 "HgN/A
12:30 AM68 °FPassing clouds.6 mph64%29.83 "HgN/A
12:00 AM68 °FPassing clouds.7 mph64%29.86 "HgN/A
11:30 PM
Aug 26
68 °FPassing clouds.8 mph60%29.86 "HgN/A
11:00 PM68 °FPassing clouds.12 mph60%29.86 "HgN/A
10:30 PM68 °FPassing clouds.8 mph60%29.86 "HgN/A
10:00 PM70 °FPassing clouds.9 mph57%29.86 "HgN/A
Weather by CustomWeather, © 2014

See weather overviewHow to use our weather pages